STARLINK-4483 (53532 NORAD) Tracking and Keplerian Element Data

This shows tracking and keplerian element data for the satellite.

Feedback or suggestion? Click here.




ElementValue
Catalog53532
NameSTARLINK-4483
Epoch Orbit1423
Epoch Day324.56351047
Epoch Year2022
RAAN84.1383
Inclination53.2206
Eccentricity0.0001993
Argument of Perigee58.172
Mean Anonmoly301.9466
Mean Motion15.08838628
Decay Rate-2.14E-06
L11 53532U 22101F 22324.56351047 -.00000214 00000+0 46666-5 0 9998
L22 53532 53.2206 84.1383 0001993 58.1720 301.9466 15.08838628 14238



Live tracking and technical data element details for STARLINK-4483 (NORAD 53532). STARLINK-4483 can be tracked NOW for your location showing map with azimuth and elevation plus other details from your city location.







IsCatalogInMostPopularTable: catalog: 53532, numindb: 2
Update: records affected: 1



GetName: 53532 STARLINK-4483

Hit Count: updated at: Tue, 29 Nov 2022 01:15:06 GMT